Date String (YYYY-MM-DD hh:mm:ss) UTC,Instrument flags,absolute air pressure of the measurement (hPa),sample flow rate (lpm),inlet stack bypass flow (lpm),air temperature of the measurement (°C),ambient temperature measured by the external sensor (°C),aerosol sample conditioner tube jacket temperature (°C),OPC LED temperature (°C),internal box temperature (°C),relative humidity of the measurement (%),span deviation,mass concentration of particles derived from Lorenz-Mie calculation of OPC scattering (μg/m³),mass concentration of particles derived from Lorenz-Mie calculation of OPC scattering (μg/m³),mass concentration of particles derived from Lorenz-Mie calculation of OPC scattering (μg/m³)
DateTimeUTC,F1_M11,P_M11,Q1_M11,Q2_M11,T1_M11,T2_M11,T3_M11,T4_M11,T5_M11,U1_M11,ZSPAN_M11,X0_M11,X2_M11,X1_M11
2023-10-04 22:00:00,SystemResetWarning,0829.9,5.00,000.00,028.7,027.8,000.0,037.1,030.5,13.2,0000.0,0005.09,0002.16,0001.61
2023-10-04 22:01:00,SystemResetWarning,0829.9,4.98,000.00,028.8,026.7,000.0,037.0,030.5,13.3,0000.0,0004.84,0002.15,0001.61
2023-10-04 22:02:00,SystemResetWarning,0829.8,5.00,000.00,028.7,025.3,000.0,037.0,030.4,13.2,0000.0,0004.80,0002.15,0001.62
2023-10-04 22:03:00,SystemResetWarning,0829.8,5.01,000.00,028.7,025.2,000.0,036.9,030.2,13.2,0000.0,0004.83,0002.15,0001.62
2023-10-04 22:04:00,SystemResetWarning,0829.8,5.01,000.00,028.6,025.4,000.0,036.9,030.1,13.1,0000.0,0005.00,0002.17,0001.61
2023-10-04 22:05:00,SystemResetWarning,0829.8,4.99,000.00,028.5,025.7,000.0,037.0,030.1,12.6,0000.0,0004.96,0002.16,0001.60
2023-10-04 22:06:00,SystemResetWarning,0829.8,5.00,000.00,028.5,026.1,000.0,037.0,030.1,12.2,0000.0,0004.44,0002.15,0001.59
2023-10-04 22:07:00,SystemResetWarning,0829.8,5.00,000.00,028.5,026.4,000.0,037.0,030.2,12.9,0000.0,0003.93,0002.14,0001.58
2023-10-04 22:08:00,SystemResetWarning,0829.9,5.00,000.00,028.6,026.7,000.0,037.0,030.2,13.1,0000.0,0003.75,0002.13,0001.58
2023-10-04 22:09:00,SystemResetWarning,0829.9,4.99,000.00,028.6,027.0,000.0,037.0,030.3,12.9,0000.0,0003.64,0002.14,0001.58
2023-10-04 22:10:00,SystemResetWarning,0829.9,5.00,000.00,028.6,027.2,000.0,037.0,030.4,13.0,0000.0,0003.61,0002.12,0001.57
2023-10-04 22:11:00,SystemResetWarning,0829.9,4.99,000.00,028.7,027.4,000.0,037.0,030.4,13.2,0000.0,0003.61,0002.10,0001.56
2023-10-04 22:12:00,SystemResetWarning,0829.9,5.00,000.00,028.7,027.5,000.0,037.1,030.5,13.2,0000.0,0003.57,0002.09,0001.55
2023-10-04 22:13:00,SystemResetWarning,0829.9,5.00,000.00,028.8,027.6,000.0,037.1,030.5,13.2,0000.0,0003.53,0002.07,0001.54
2023-10-04 22:14:00,SystemResetWarning,0829.9,5.01,000.00,028.8,027.7,000.0,037.1,030.6,12.9,0000.0,0003.68,0002.10,0001.53
2023-10-04 22:15:00,SystemResetWarning,0830.0,4.99,000.00,028.8,026.5,000.0,037.1,030.5,12.9,0000.0,0003.77,0002.10,0001.53
2023-10-04 22:16:00,SystemResetWarning,0829.9,5.00,000.00,028.7,024.6,000.0,037.0,030.2,13.1,0000.0,0003.71,0002.10,0001.52
2023-10-04 22:17:00,SystemResetWarning,0829.9,5.01,000.00,028.6,024.2,000.0,036.9,030.1,13.1,0000.0,0004.14,0002.07,0001.52
2023-10-04 22:18:00,SystemResetWarning,0829.9,5.00,000.00,028.5,024.5,000.0,036.9,029.9,12.9,0000.0,0004.32,0002.03,0001.50
2023-10-04 22:19:00,SystemResetWarning,0829.9,5.00,000.00,028.4,024.9,000.0,036.9,029.8,13.1,0000.0,0004.56,0002.03,0001.50
2023-10-04 22:20:00,SystemResetWarning,0829.9,5.00,000.00,028.4,025.3,000.0,036.9,029.9,13.2,0000.0,0004.50,0001.99,0001.48
2023-10-04 22:21:00,SystemResetWarning,0830.0,4.99,000.00,028.4,025.7,000.0,036.9,029.9,13.5,0000.0,0005.71,0001.97,0001.47
2023-10-04 22:22:00,SystemResetWarning,0830.0,4.99,000.00,028.4,026.1,000.0,036.9,030.0,13.4,0000.0,0005.80,0001.96,0001.47
2023-10-04 22:23:00,SystemResetWarning,0830.0,5.00,000.00,028.4,026.4,000.0,036.9,030.1,13.3,0000.0,0006.04,0001.95,0001.47
2023-10-04 22:24:00,SystemResetWarning,0830.0,5.01,000.00,028.4,026.7,000.0,036.9,030.1,13.4,0000.0,0006.35,0001.95,0001.48
2023-10-04 22:25:00,SystemResetWarning,0830.0,5.01,000.00,028.5,026.9,000.0,036.9,030.2,13.5,0000.0,0006.15,0001.89,0001.47
2023-10-04 22:26:00,SystemResetWarning,0830.0,5.01,000.00,028.5,027.1,000.0,036.9,030.3,13.3,0000.0,0005.86,0001.83,0001.46
2023-10-04 22:27:00,SystemResetWarning,0830.0,5.00,000.00,028.5,027.3,000.0,036.9,030.3,13.4,0000.0,0005.73,0001.80,0001.45
2023-10-04 22:28:00,SystemResetWarning,0830.0,5.00,000.00,028.6,027.4,000.0,037.0,030.4,13.7,0000.0,0005.22,0001.81,0001.45
2023-10-04 22:29:00,SystemResetWarning,0830.0,5.00,000.00,028.6,027.5,000.0,037.0,030.4,13.6,0000.0,0004.89,0001.80,0001.45
2023-10-04 22:30:00,SystemResetWarning,0830.0,5.00,000.00,028.7,027.7,000.0,037.0,030.5,13.7,0000.0,0004.56,0001.75,0001.44
2023-10-04 22:31:00,SystemResetWarning,0830.0,5.00,000.00,028.7,027.7,000.0,037.0,030.5,13.7,0000.0,0004.42,0001.71,0001.43
2023-10-04 22:32:00,SystemResetWarning,0830.0,5.00,000.00,028.8,027.8,000.0,037.0,030.6,13.7,0000.0,0002.91,0001.68,0001.43
2023-10-04 22:33:00,SystemResetWarning,0830.0,4.98,000.00,028.8,026.7,000.0,037.0,030.5,13.7,0000.0,0002.85,0001.69,0001.43
2023-10-04 22:34:00,SystemResetWarning,0830.0,5.01,000.00,028.7,025.3,000.0,037.0,030.4,13.5,0000.0,0003.62,0001.70,0001.43
2023-10-04 22:35:00,SystemResetWarning,0830.0,5.01,000.00,028.7,025.1,000.0,036.9,030.2,13.2,0000.0,0003.90,0001.76,0001.44
2023-10-04 22:36:00,SystemResetWarning,0830.0,5.00,000.00,028.6,025.4,000.0,037.0,030.1,13.2,0000.0,0004.17,0001.83,0001.45
2023-10-04 22:37:00,SystemResetWarning,0830.0,4.99,000.00,028.5,025.7,000.0,037.0,030.1,13.0,0000.0,0005.41,0001.91,0001.45
2023-10-04 22:38:00,SystemResetWarning,0830.0,5.00,000.00,028.5,026.1,000.0,037.0,030.1,12.9,0000.0,0006.12,0001.95,0001.46
2023-10-04 22:39:00,SystemResetWarning,0830.0,5.00,000.00,028.6,026.4,000.0,037.0,030.2,12.8,0000.0,0006.48,0002.00,0001.48
2023-10-04 22:40:00,SystemResetWarning,0830.0,4.99,000.00,028.6,026.7,000.0,037.0,030.3,13.0,0000.0,0006.81,0002.08,0001.50
2023-10-04 22:41:00,SystemResetWarning,0830.0,5.00,000.00,028.6,027.0,000.0,037.0,030.3,13.5,0000.0,0007.91,0002.10,0001.51
2023-10-04 22:42:00,SystemResetWarning,0830.1,5.00,000.00,028.6,027.2,000.0,037.0,030.4,13.6,0000.0,0007.97,0002.16,0001.52
2023-10-04 22:43:00,SystemResetWarning,0830.1,5.01,000.00,028.7,027.4,000.0,037.1,030.4,13.7,0000.0,0008.01,0002.18,0001.52
2023-10-04 22:44:00,SystemResetWarning,0830.1,5.00,000.00,028.7,027.5,000.0,037.1,030.5,13.9,0000.0,0008.10,0002.23,0001.52
2023-10-04 22:45:00,SystemResetWarning,0830.1,5.00,000.00,028.8,027.7,000.0,037.1,030.6,13.8,0000.0,0007.63,0002.23,0001.53
2023-10-04 22:46:00,SystemResetWarning,0830.2,5.00,000.00,028.8,027.8,000.0,037.1,030.6,13.5,0000.0,0007.26,0002.19,0001.54
2023-10-04 22:47:00,SystemResetWarning,0830.3,5.01,000.00,028.9,027.9,000.0,037.2,030.7,13.4,0000.0,0007.20,0002.15,0001.54
2023-10-04 22:48:00,SystemResetWarning,0830.2,4.98,000.00,028.9,026.7,000.0,037.1,030.6,13.4,0000.0,0006.76,0002.16,0001.54
2023-10-04 22:49:00,SystemResetWarning,0830.2,5.01,000.00,028.8,024.7,000.0,037.1,030.3,13.6,0000.0,0006.18,0002.18,0001.54
2023-10-04 22:50:00,SystemResetWarning,0830.2,5.01,000.00,028.7,024.2,000.0,037.0,030.2,13.6,0000.0,0007.36,0002.21,0001.54
2023-10-04 22:51:00,SystemResetWarning,0830.2,5.00,000.00,028.6,024.5,000.0,037.0,030.0,13.7,0000.0,0007.95,0002.18,0001.53
2023-10-04 22:52:00,SystemResetWarning,0830.3,5.01,000.00,028.5,024.9,000.0,037.0,029.9,13.8,0000.0,0008.30,0002.17,0001.54
2023-10-04 22:53:00,SystemResetWarning,0830.2,5.00,000.00,028.4,025.4,000.0,037.0,029.9,13.7,0000.0,0008.28,0002.16,0001.56
2023-10-04 22:54:00,SystemResetWarning,0830.3,5.00,000.00,028.4,025.8,000.0,037.0,030.0,13.8,0000.0,0008.53,0002.17,0001.56
2023-10-04 22:55:00,SystemResetWarning,0830.3,5.00,000.00,028.4,026.2,000.0,037.0,030.1,14.0,0000.0,0008.66,0002.18,0001.58
2023-10-04 22:56:00,SystemResetWarning,0830.3,5.00,000.00,028.5,026.5,000.0,037.0,030.1,14.0,0000.0,0008.67,0002.18,0001.57
2023-10-04 22:57:00,SystemResetWarning,0830.3,5.01,000.00,028.5,026.8,000.0,037.0,030.2,13.7,0000.0,0009.00,0002.16,0001.56
2023-10-04 22:58:00,SystemResetWarning,0830.3,5.00,000.00,028.5,027.0,000.0,037.0,030.3,13.7,0000.0,0009.56,0002.13,0001.55
2023-10-04 22:59:00,SystemResetWarning,0830.3,5.00,000.00,028.6,027.2,000.0,037.0,030.3,13.6,0000.0,0009.60,0002.14,0001.55
